"Pseudo-MPEC" for A11n8Hi

Created 2025 May 11 2:31:01 UT using Find_Orb

Click here for an explanation of pseudo-MPECs

 
 Astrometry: 
     A11n8Hi* C2025 05 090u,vgKyuW\$u#*r;L-nUC:4gKkc?Astrometry8ROg9KDPC!aYY7T05
     A11n8Hi  C2025 05 09\d/R6Fk9:Ye%C*qv3_redacted;i8)oiKP_*AvnPN_GNP:hdu-ikT05
     A11n8Hi  C2025 05 09:n$y]p\-_bXj1xeJ=TTWvclick,]ahereKNs,U1for8TP`0FKb1gT05
     A11n8Hi  C2025 05 09h5^vjrbU$M]Z!Cexplanation52'*\ZVF'/loQ'SNKIhL0lSGL.kT05

Station data:
(T05) ATLAS-HKO, Haleakala  (N20.707551 W156.257010)  US/Hawaii.  Observers
   L. Denneau, A. Heinze, H. Weiland, J. Tonry, H. Flewelling, A.
   Fitzsimmons, D. Young, B. Stalder. Measurers L. Denneau, A. Heinze, J.
   Tonry. 0.5-m f/2.0 Schmidt + CCD.

Orbital elements:  A11n8Hi
   Perigee 2025 May 10.96779 +/- 0.363 TT = 23:13:36 (JD 2460806.46779)
Epoch 2025 May 10.0 TT = JDT 2460805.5                           AutoNEOCP
M 196.65849755 +/- 35               (J2000 equator)
n 168.77855620 +/- 26.8             Peri.  186.84243 +/- 3.6
a 69993.6531 +/- 7420               Node   340.97170 +/- 0.25
e   0.8990831 +/- 0.00962           Incl.   23.47112 +/- 0.6
P3071.422m/2.133d          H 26.46  G  0.15   U 14.9
q 7063.53943 +/- 1357    Q 132923.766 +/- 13542
From 4 observations 2025 May 9 (42.4 min); mean residual 0".02
Residuals in arcseconds: 
250509 T05  .00   .03-    250509 T05  .00   .04-    
250509 T05  .00   .04+    250509 T05  .00   .02+    

Ephemerides (geocentric):
Date (UTC) HH   RA             Dec           delta  r     elong  mag " sig PA
---- --------  ------------   ------------  ------ ------ -----  --- --------
2025 05 11 03  21 09 02.332   -09 51 00.99   55567 1.0099  93.6 12.4  62d  69
2025 05 11 04  21 24 51.362   -08 17 40.98   64451 1.0099  89.4 12.9  61d  68
2025 05 11 05  21 36 55.792   -07 04 19.43   72343 1.0099  86.3 13.2  61d  68
2025 05 11 06  21 46 41.102   -06 03 54.00   79427 1.0099  83.7 13.6  63d  68
2025 05 11 07  21 54 52.919   -05 12 26.36   85828 1.0099  81.5 13.8  67d  67
2025 05 11 08  22 01 58.230   -04 27 29.98   91635 1.0098  79.6 14.1  77d  67
2025 05 11 09  22 08 14.226   -03 47 28.80   96917 1.0098  78.0 14.3 103d  67
2025 05 11 10  22 13 52.490   -03 11 16.65  101724 1.0098  76.5 14.4 105d  67
2025 05 11 11  22 19 01.181   -02 38 06.09  106097 1.0098  75.1 14.6  46d  67
2025 05 11 12  22 23 46.260   -02 07 21.95  110069 1.0098  73.9 14.8  31d  67
2025 05 11 13  22 28 12.216   -01 38 37.45  113667 1.0098  72.7 14.9  24d  67
2025 05 11 14  22 32 22.520   -01 11 31.66  116912 1.0098  71.6 15.0  20d  67
2025 05 11 15  22 36 19.917   -00 45 47.89  119822 1.0097  70.6 15.1  17d  67
2025 05 11 16  22 40 06.628   -00 21 12.57  122413 1.0097  69.6 15.2 909'  67
2025 05 11 17  22 43 44.482   +00 02 25.55  124696 1.0097  68.7 15.3 817'  67
2025 05 11 18  22 47 15.018   +00 25 15.98  126684 1.0097  67.8 15.4 746'  67
2025 05 11 19  22 50 39.550   +00 47 26.85  128383 1.0097  66.9 15.5 689'  66
2025 05 11 20  22 53 59.227   +01 09 05.28  129802 1.0097  66.0 15.6 644'  66
2025 05 11 21  22 57 15.066   +01 30 17.58  130947 1.0097  65.2 15.7 608'  66
2025 05 11 22  23 00 27.992   +01 51 09.46  131821 1.0097  64.3 15.7 579'  66
2025 05 11 23  23 03 38.857   +02 11 46.18  132428 1.0097  63.5 15.8 556'  66
2025 05 12 00  23 06 48.466   +02 32 12.67  132770 1.0097  62.7 15.9 537'  66
2025 05 12 01  23 09 57.594   +02 52 33.68  132849 1.0097  61.9 15.9 523'  66
2025 05 12 02  23 13 07.006   +03 12 53.81  132665 1.0097  61.1 16.0 512'  66
2025 05 12 03  23 16 17.471   +03 33 17.69  132218 1.0097  60.2 16.0 505'  66
2025 05 12 04  23 19 29.780   +03 53 50.01  131505 1.0097  59.4 16?? 501'  66
2025 05 12 05  23 22 44.766   +04 14 35.64  130524 1.0097  58.6 16?? 500'  66
2025 05 12 06  23 26 03.320   +04 35 39.77  129271 1.0097  57.7 16?? 501'  66
2025 05 12 07  23 29 26.422   +04 57 08.01  127742 1.0097  56.8 16?? 506'  66
2025 05 12 08  23 32 55.164   +05 19 06.51  125929 1.0097  55.9 16?? 513'  66
2025 05 12 09  23 36 30.787   +05 41 42.22  123825 1.0097  55.0 16?? 524'  67
2025 05 12 10  23 40 14.732   +06 05 03.06  121422 1.0097  54.1 16?? 537'  67
2025 05 12 11  23 44 08.698   +06 29 18.25  118707 1.0097  53.0 16?? 554'  67
2025 05 12 12  23 48 14.725   +06 54 38.70  115666 1.0097  52.0 16?? 575'  67
2025 05 12 13  23 52 35.315   +07 21 17.58  112285 1.0097  50.9 16?? 600'  67
2025 05 12 14  23 57 13.590   +07 49 31.05  108543 1.0098  49.7 16?? 630'  67
2025 05 12 15  00 02 13.541   +08 19 39.40  104417 1.0098  48.4 16?? 666'  67
2025 05 12 16  00 07 40.386   +08 52 08.59   99878 1.0098  47.0 16?? 709'  68
2025 05 12 17  00 13 41.145   +09 27 32.77   94891 1.0098  45.4 16?? 760'  68
2025 05 12 18  00 20 25.568   +10 06 38.06   89412 1.0098  43.7 16?? 823'  68
2025 05 12 19  00 28 07.746   +10 50 28.94   83382 1.0099  41.7 16?? 900'  68
2025 05 12 20  00 37 09.047   +11 40 39.28   76728 1.0099  39.4 17?? 997'  69
2025 05 12 21  00 48 03.956   +12 39 32.69   69348 1.0099  36.6 17??  19d  70
2025 05 12 22  01 01 52.972   +13 51 03.52   61099 1.0100  33.1 17??  22d  70
2025 05 12 23  01 20 35.558   +15 22 07.25   51761 1.0100  28.4 17??  26d  72
2025 05 13 00  01 48 54.891   +17 26 22.81   40977 1.0101  21.4 19??  32d  74
2025 05 13 01  02 42 21.136   +20 32 42.69   28076 1.0101   8.9 26??  44d  78
2025 05 13 02  05 52 26.944   +22 30 01.87   11894 1.0103  36.0 13??  87d  97